SCP
0 0 0 0 0 0 0 0 0 0 0 0 0 0 0 0 0 0 0 0 0 0 0 0 0 0 0 0 0 0 -0 -0 -0 -0 -0 -0 -0 -0 -0 -0 -0 -0 -0
0 0 0 0 0 0 0 0 0 0 0 0 0 0 0 0 0 0 0 0 0 0 0 0 0 0 0 0 0 0 -0 -0 -0 -0 -0 -0 -0 -0 -0 -0 0 -0 -0
0 0 0 0 0 0 0 0 0 0 0 0 0 0 0 0 0 0 0 0 0 0 0 0 0 0 0 0 0 0 0 0 -0 -0 0 0 0 0 0 -0 -0 -0 -0
0 0 0 0 0 0 0 0 0 0 0 0 0 0 0 0 0 0 0 0 0 0 0 0 0 0 0 0 0 0 0 0 0 0 0 0 0 0 0 0 -0 -0 -0
0 0 0 0 0 0 0 0 0 0 0 0 0 0 0 0 0 0 0 0 0 0 0 0 0 0 0 0 0 0 0 0 0 0 0 0 0 0 0 0 0 0 0
0 0 0 0 0 0 0 0 0 0 0 0 0 0 0 0 0 0 0 0 0 0 0 0 0 0 0 0 0 0 0 0 0 0 0 0 0 0 0 0 0 0 0
0 0 0 0 0 0 0 0 0 0 1 0 0 0 0 0 0 0 0 0 0 0 0 0 0 0 0 0 0 0 0 0 0 0 0 0 0 0 0 0 0 0 0
0 0 0 0 0 0 0 0 1 0 0 1 0 0 0 0 0 0 0 0 0 0 0 0 0 0 0 0 0 0 0 0 0 0 0 0 0 0 0 0 0 0 0
0 0 0 0 0 0 0 0 0 1 0 1 1 1 0 0 0 0 0 0 0 0 0 0 0 0 0 0 0 0 0 0 0 0 0 0 0 0 0 0 -0 0 0
0 0 0 0 0 0 0 0 0 0 1 1 1 1 0 0 0 0 0 0 0 0 0 0 0 0 0 0 0 0 0 0 0 0 0 0 0 0 0 0 0 0 0
0 0 0 0 0 0 0 0 0 0 0 0 0 0 0 0 0 0 0 0 0 0 0 0 0 0 0 0 0 0 0 0 0 0 0 0 0 0 0 0 0 0 0
0 0 0 0 0 0 0 0 0 1 1 0 1 1 1 1 1 0 0 0 0 0 0 0 0 0 0 0 0 0 0 0 0 0 0 0 0 0 0 0 0 0 0
0 0 0 0 0 0 0 0 0 0 1 1 1 1 1 1 1 1 1 0 0 0 0 0 0 0 0 0 0 0 0 0 0 0 0 0 0 0 0 0 0 0 0
0 0 0 0 0 0 0 0 0 0 0 1 1 1 1 1 1 1 1 1 0 0 0 0 0 0 0 0 0 0 0 0 0 0 0 0 0 0 0 0 0 0 0
0 0 0 0 0 0 0 0 0 0 0 0 0 1 1 1 1 1 1 0 0 0 0 0 0 0 0 0 0 0 0 0 0 0 0 0 0 0 0 0 0 0 0
0 0 0 0 0 0 0 0 0 0 0 0 0 0 0 1 2 1 1 0 0 0 0 0 0 0 0 0 0 0 0 0 0 0 0 0 0 0 0 0 0 0 0
0 0 0 0 0 0 0 0 0 0 0 0 0 0 0 0 1 2 1 1 0 0 0 0 0 0 0 0 0 0 0 0 0 0 0 0 0 0 0 0 0 0 0
0 0 0 0 0 0 0 0 0 0 0 0 0 0 0 0 0 1 1 1 0 0 0 0 0 0 0 0 0 0 0 0 0 0 0 0 0 0 0 0 0 0 0
0 0 0 0 0 0 0 0 0 0 0 0 0 0 0 0 0 0 0 1 0 0 0 0 0 0 0 0 0 0 0 0 0 0 0 0 0 0 0 0 0 0 0
0 0 0 0 0 0 0 0 0 0 0 0 0 0 0 0 -0 0 0 0 1 0 0 0 0 0 0 0 0 0 0 0 0 0 0 0 0 0 0 0 0 0 0
0 0 0 0 0 0 0 0 0 0 0 0 0 0 0 0 0 0 0 0 0 0 0 0 0 0 0 0 0 0 0 0 0 0 0 0 0 0 0 0 0 0 0
0 0 0 0 0 0 0 0 0 0 0 0 0 0 0 0 0 0 0 0 1 1 0 0 0 0 0 0 0 0 0 0 0 0 0 0 0 0 0 0 0 0 0
0 0 0 0 0 0 0 0 0 0 0 0 0 0 0 0 0 0 0 0 0 0 0 0 0 0 0 0 0 0 0 0 0 0 0 0 0 0 0 0 0 0 0
0 0 0 0 0 0 0 0 0 0 0 0 0 0 0 0 0 0 0 0 0 0 0 0 0 0 0 0 0 0 0 0 0 0 0 0 0 0 0 0 0 0 0
0 0 0 0 0 0 0 0 0 0 0 0 0 0 0 0 0 0 0 0 0 0 0 0 0 0 0 0 0 0 0 0 0 0 0 0 0 0 0 0 0 0 0
0 0 0 0 0 0 0 0 0 0 0 0 0 0 0 0 0 0 0 0 0 0 0 0 0 0 0 0 0 0 0 0 0 0 0 0 0 0 0 0 0 0 0
Wind_Speed_500mb
5 6 29 31 32 38 41 38 35 36 36 35 31 27 24 24 26 29 30 27 23 18 13 8 12 23 24 23 19 19 19 16 22 21 17 19 20 39 48 45 35 30 28
21 13 25 33 35 38 40 40 37 37 35 35 33 30 28 27 29 30 31 28 22 16 9 9 18 20 18 20 18 24 32 34 32 25 20 20 30 46 46 36 33 28 27
13 16 29 35 37 38 39 40 39 39 37 36 34 32 30 30 30 33 35 29 23 15 11 16 22 25 23 28 25 28 26 30 31 26 17 18 25 42 41 32 28 30 30
13 3 24 33 38 39 41 40 40 39 39 38 37 34 32 31 33 36 37 33 25 20 17 24 21 27 25 34 24 18 26 26 33 28 26 18 24 37 32 25 25 29 30
9 6 18 33 36 39 44 43 41 39 39 39 39 37 35 31 34 37 39 34 28 25 25 30 28 26 28 30 26 20 30 28 28 30 20 20 26 29 30 23 20 24 30
21 9 23 28 38 42 42 45 44 42 40 39 39 40 37 33 33 40 42 38 34 32 31 32 36 37 35 32 28 29 28 33 33 21 22 30 26 21 25 28 23 29 35
29 16 26 22 34 45 46 44 48 47 46 43 42 42 40 38 36 40 42 40 39 35 30 38 36 34 40 36 32 31 34 34 29 23 22 22 32 29 22 29 25 32 35
30 25 24 30 31 43 50 50 49 52 51 50 48 45 44 43 42 44 43 44 40 35 32 37 37 35 34 46 37 32 34 36 35 24 23 18 30 34 31 35 30 33 36
35 32 28 33 37 37 53 54 53 55 57 56 53 51 49 45 46 46 45 44 42 41 34 32 37 41 38 44 41 40 32 34 25 22 23 23 29 34 32 34 44 40 37
41 41 35 35 38 42 45 57 59 59 60 61 58 56 52 49 47 46 47 46 46 45 37 33 34 40 33 48 48 42 36 31 31 25 25 23 30 33 28 22 44 47 38
34 32 41 38 40 43 41 46 62 65 67 62 61 59 56 54 54 53 51 50 49 47 40 34 36 36 27 41 42 40 41 37 32 26 24 33 38 36 26 24 41 48 42
36 35 38 42 41 43 48 45 50 58 68 69 66 65 63 61 57 56 55 54 54 49 44 40 39 35 34 38 40 38 38 29 32 29 25 35 33 34 29 25 21 35 40
41 40 40 46 46 42 43 50 47 51 57 65 73 70 69 68 62 56 57 59 59 54 50 49 47 44 46 41 34 44 39 31 31 31 30 35 34 38 34 31 26 24 26
48 46 44 41 46 43 42 45 49 48 60 59 63 77 75 73 74 67 65 65 66 64 61 59 56 54 51 47 37 36 36 34 34 32 30 37 36 42 43 43 39 40 39
51 49 46 44 39 45 45 43 45 45 51 53 69 65 76 81 81 77 74 69 68 69 67 61 56 54 55 53 49 45 44 43 36 34 32 34 39 41 46 47 45 41 40
49 49 48 47 44 43 50 48 50 51 50 51 52 73 70 81 86 84 83 79 69 70 66 65 58 52 54 57 58 54 49 49 45 40 35 34 37 42 44 45 47 45 45
48 50 51 47 44 43 44 55 53 57 59 59 53 54 59 93 82 92 91 86 77 70 67 66 58 53 53 59 61 59 53 52 50 50 45 40 35 42 43 44 44 49 52
54 52 51 49 47 47 47 48 57 56 63 67 65 61 61 61 89 80 94 109 88 78 72 65 66 60 55 53 55 54 54 54 53 52 50 48 45 41 45 46 46 47 49
55 57 55 51 51 49 48 48 48 59 59 69 68 65 62 64 71 89 79 106 100 83 79 75 72 67 64 58 50 50 52 53 55 53 55 52 51 49 48 46 47 50 49
54 54 54 52 52 47 47 50 50 48 59 62 67 64 62 62 54 63 65 98 104 97 88 84 77 73 69 62 53 44 46 51 52 53 54 54 54 54 54 52 51 51 53
54 53 52 52 50 49 46 46 49 50 49 51 64 65 63 57 70 57 74 83 72 90 104 92 88 77 66 57 49 43 49 53 53 54 56 58 57 58 59 57 58 58 54
57 54 51 51 50 49 48 47 48 44 41 39 49 59 63 63 50 56 56 65 94 79 110 93 89 82 76 71 64 55 28 44 56 60 59 62 62 62 63 64 62 61 60
55 52 55 58 54 51 50 46 47 49 45 37 50 53 45 49 55 62 59 56 80 84 96 90 85 91 88 86 81 50 21 24 39 54 64 66 69 66 65 67 64 63 63
57 56 54 54 55 49 50 47 46 45 45 41 39 40 42 51 50 47 44 49 56 77 73 96 89 91 88 84 92 82 62 33 27 20 38 50 59 70 69 66 64 62 59
51 56 50 50 47 44 47 42 40 48 43 38 32 42 40 52 50 52 62 39 53 40 34 79 79 76 60 64 74 75 77 72 60 46 20 28 38 53 60 59 59 57 58
50 53 44 41 35 32 40 37 38 38 32 32 30 40 42 53 43 40 52 28 49 71 62 56 59 67 64 50 49 74 76 69 80 77 69 61 33 42 40 38 38 41 44
Wind_Direction_500mb
275 38 275 216 211 202 200 200 199 202 203 199 196 197 192 190 172 178 176 175 178 183 189 200 206 175 184 189 194 198 182 157 151 155 158 162 154 141 128 123 115 139 128
300 270 262 222 221 210 211 209 210 207 206 204 202 197 193 190 179 179 180 180 181 184 192 172 159 159 160 156 152 149 154 158 153 166 156 161 153 145 136 127 135 144 141
308 325 240 227 219 212 219 219 217 214 210 209 209 206 200 195 190 186 186 184 183 192 192 176 161 155 157 153 147 149 160 171 171 167 151 137 148 150 149 132 144 147 142
355 9 249 231 223 218 217 222 220 220 218 214 213 212 208 205 201 194 192 192 199 210 205 184 176 184 172 166 178 186 178 172 186 173 119 144 153 154 155 149 146 154 151
330 229 205 233 237 230 220 221 223 220 221 219 215 209 210 212 205 202 201 201 206 220 209 199 191 186 182 184 187 194 188 179 173 139 152 174 167 171 174 166 176 161 158
331 243 210 223 240 244 234 228 227 219 219 220 217 214 215 215 209 207 209 210 218 221 215 225 214 209 218 205 196 200 193 177 155 144 165 202 179 171 172 170 179 180 167
343 283 232 236 230 243 239 239 230 227 221 220 221 220 222 216 211 212 214 217 223 228 219 209 218 215 215 212 211 230 194 186 141 171 176 215 173 168 180 175 186 177 177
334 313 266 245 240 234 236 239 237 231 226 224 223 223 225 221 217 216 217 220 222 210 197 209 218 219 223 211 214 221 197 195 158 186 180 201 183 178 191 190 193 188 184
315 314 284 263 247 242 234 236 239 236 232 229 227 224 224 220 219 220 220 219 212 204 210 223 222 223 219 213 210 217 202 187 187 197 191 186 223 194 203 204 189 195 190
302 302 294 280 266 250 240 235 236 238 236 232 231 230 230 227 220 217 220 213 208 207 218 226 224 217 224 211 210 216 212 199 179 210 201 202 227 194 210 211 192 193 199
309 303 294 282 277 270 254 238 234 237 236 237 235 233 231 227 224 221 214 211 209 213 222 219 222 220 223 208 209 212 204 203 185 208 209 217 223 212 193 216 201 201 209
310 310 298 285 279 277 272 263 245 239 240 236 235 233 230 229 223 216 215 215 215 220 221 218 223 226 215 210 210 215 207 202 200 211 210 231 217 198 184 210 217 212 213
305 304 302 294 281 274 274 269 265 253 239 239 236 234 231 229 221 214 215 216 216 218 219 221 227 222 213 213 217 217 208 202 210 211 215 228 212 198 193 201 220 221 220
302 300 300 300 291 278 270 270 266 259 246 241 239 234 233 228 224 216 214 219 215 216 216 218 219 221 217 205 213 230 210 209 210 215 221 225 214 211 206 200 209 218 222
301 298 296 295 290 281 267 261 261 260 253 246 240 236 232 232 230 221 214 218 216 212 210 213 219 223 217 212 216 218 213 210 210 216 217 236 222 219 216 214 214 221 226
303 299 295 290 286 278 269 260 258 256 255 256 245 244 241 228 234 229 222 218 219 211 210 208 212 220 221 216 217 218 214 218 210 218 222 238 228 221 223 224 222 216 225
304 300 293 289 284 277 271 263 259 256 257 253 254 244 243 243 229 232 230 219 214 214 213 208 205 211 215 217 218 221 221 224 223 223 225 226 237 227 228 230 231 227 225
308 301 294 286 279 271 269 266 260 262 258 257 252 251 243 245 247 230 231 228 214 215 208 203 206 206 210 214 219 223 225 227 228 229 233 235 232 239 234 236 236 236 235
304 301 294 288 280 273 266 261 258 253 256 253 257 252 252 258 248 253 234 220 217 211 212 207 210 209 210 213 214 219 226 228 232 232 235 237 239 240 244 245 242 243 241
300 297 294 289 282 275 267 256 249 256 255 253 251 251 253 255 263 256 256 227 222 216 211 210 209 213 216 211 210 213 224 230 234 234 239 241 243 244 244 244 248 243 243
302 296 294 290 285 276 266 259 253 243 250 247 250 246 247 255 250 266 246 246 244 216 209 218 210 211 208 212 208 207 224 231 235 240 241 243 245 244 246 246 245 250 248
304 300 297 291 286 276 266 255 243 243 247 249 251 249 244 250 253 252 251 236 229 214 216 217 211 206 210 203 197 208 216 232 237 243 245 248 249 249 249 248 249 251 251
308 302 298 293 284 273 266 253 245 237 241 241 247 249 244 238 245 248 257 258 237 233 216 224 215 208 204 209 216 211 201 216 240 249 248 254 255 251 250 251 252 252 254
310 305 302 298 296 277 263 250 237 235 237 242 252 243 240 242 237 240 251 247 231 216 217 229 211 213 222 220 219 224 224 234 209 228 248 251 248 247 249 250 252 253 254
313 312 311 302 295 280 256 242 234 233 235 240 241 249 241 244 234 234 233 250 250 199 212 212 212 207 228 244 233 232 230 230 236 236 247 239 244 242 241 244 248 254 255
319 318 318 311 302 288 258 239 223 230 236 242 247 245 254 246 244 231 227 227 248 239 224 214 226 231 200 242 264 249 242 234 238 239 239 246 260 259 248 246 247 250 254
Wind_Speed_850mb
5 6 29 31 32 38 41 38 35 36 36 35 31 27 24 24 26 29 30 27 23 18 13 8 12 23 24 23 19 19 19 16 22 21 17 19 20 39 48 45 35 30 28
21 13 25 33 35 38 40 40 37 37 35 35 33 30 28 27 29 30 31 28 22 16 9 9 18 20 18 20 18 24 32 34 32 25 20 20 30 46 46 36 33 28 27
13 16 29 35 37 38 39 40 39 39 37 36 34 32 30 30 30 33 35 29 23 15 11 16 22 25 23 28 25 28 26 30 31 26 17 18 25 42 41 32 28 30 30
13 3 24 33 38 39 41 40 40 39 39 38 37 34 32 31 33 36 37 33 25 20 17 24 21 27 25 34 24 18 26 26 33 28 26 18 24 37 32 25 25 29 30
9 6 18 33 36 39 44 43 41 39 39 39 39 37 35 31 34 37 39 34 28 25 25 30 28 26 28 30 26 20 30 28 28 30 20 20 26 29 30 23 20 24 30
21 9 23 28 38 42 42 45 44 42 40 39 39 40 37 33 33 40 42 38 34 32 31 32 36 37 35 32 28 29 28 33 33 21 22 30 26 21 25 28 23 29 35
29 16 26 22 34 45 46 44 48 47 46 43 42 42 40 38 36 40 42 40 39 35 30 38 36 34 40 36 32 31 34 34 29 23 22 22 32 29 22 29 25 32 35
30 25 24 30 31 43 50 50 49 52 51 50 48 45 44 43 42 44 43 44 40 35 32 37 37 35 34 46 37 32 34 36 35 24 23 18 30 34 31 35 30 33 36
35 32 28 33 37 37 53 54 53 55 57 56 53 51 49 45 46 46 45 44 42 41 34 32 37 41 38 44 41 40 32 34 25 22 23 23 29 34 32 34 44 40 37
41 41 35 35 38 42 45 57 59 59 60 61 58 56 52 49 47 46 47 46 46 45 37 33 34 40 33 48 48 42 36 31 31 25 25 23 30 33 28 22 44 47 38
34 32 41 38 40 43 41 46 62 65 67 62 61 59 56 54 54 53 51 50 49 47 40 34 36 36 27 41 42 40 41 37 32 26 24 33 38 36 26 24 41 48 42
36 35 38 42 41 43 48 45 50 58 68 69 66 65 63 61 57 56 55 54 54 49 44 40 39 35 34 38 40 38 38 29 32 29 25 35 33 34 29 25 21 35 40
41 40 40 46 46 42 43 50 47 51 57 65 73 70 69 68 62 56 57 59 59 54 50 49 47 44 46 41 34 44 39 31 31 31 30 35 34 38 34 31 26 24 26
48 46 44 41 46 43 42 45 49 48 60 59 63 77 75 73 74 67 65 65 66 64 61 59 56 54 51 47 37 36 36 34 34 32 30 37 36 42 43 43 39 40 39
51 49 46 44 39 45 45 43 45 45 51 53 69 65 76 81 81 77 74 69 68 69 67 61 56 54 55 53 49 45 44 43 36 34 32 34 39 41 46 47 45 41 40
49 49 48 47 44 43 50 48 50 51 50 51 52 73 70 81 86 84 83 79 69 70 66 65 58 52 54 57 58 54 49 49 45 40 35 34 37 42 44 45 47 45 45
48 50 51 47 44 43 44 55 53 57 59 59 53 54 59 93 82 92 91 86 77 70 67 66 58 53 53 59 61 59 53 52 50 50 45 40 35 42 43 44 44 49 52
54 52 51 49 47 47 47 48 57 56 63 67 65 61 61 61 89 80 94 109 88 78 72 65 66 60 55 53 55 54 54 54 53 52 50 48 45 41 45 46 46 47 49
55 57 55 51 51 49 48 48 48 59 59 69 68 65 62 64 71 89 79 106 100 83 79 75 72 67 64 58 50 50 52 53 55 53 55 52 51 49 48 46 47 50 49
54 54 54 52 52 47 47 50 50 48 59 62 67 64 62 62 54 63 65 98 104 97 88 84 77 73 69 62 53 44 46 51 52 53 54 54 54 54 54 52 51 51 53
54 53 52 52 50 49 46 46 49 50 49 51 64 65 63 57 70 57 74 83 72 90 104 92 88 77 66 57 49 43 49 53 53 54 56 58 57 58 59 57 58 58 54
57 54 51 51 50 49 48 47 48 44 41 39 49 59 63 63 50 56 56 65 94 79 110 93 89 82 76 71 64 55 28 44 56 60 59 62 62 62 63 64 62 61 60
55 52 55 58 54 51 50 46 47 49 45 37 50 53 45 49 55 62 59 56 80 84 96 90 85 91 88 86 81 50 21 24 39 54 64 66 69 66 65 67 64 63 63
57 56 54 54 55 49 50 47 46 45 45 41 39 40 42 51 50 47 44 49 56 77 73 96 89 91 88 84 92 82 62 33 27 20 38 50 59 70 69 66 64 62 59
51 56 50 50 47 44 47 42 40 48 43 38 32 42 40 52 50 52 62 39 53 40 34 79 79 76 60 64 74 75 77 72 60 46 20 28 38 53 60 59 59 57 58
50 53 44 41 35 32 40 37 38 38 32 32 30 40 42 53 43 40 52 28 49 71 62 56 59 67 64 50 49 74 76 69 80 77 69 61 33 42 40 38 38 41 44
Wind_Direction_850mb
275 38 275 216 211 202 200 200 199 202 203 199 196 197 192 190 172 178 176 175 178 183 189 200 206 175 184 189 194 198 182 157 151 155 158 162 154 141 128 123 115 139 128
300 270 262 222 221 210 211 209 210 207 206 204 202 197 193 190 179 179 180 180 181 184 192 172 159 159 160 156 152 149 154 158 153 166 156 161 153 145 136 127 135 144 141
308 325 240 227 219 212 219 219 217 214 210 209 209 206 200 195 190 186 186 184 183 192 192 176 161 155 157 153 147 149 160 171 171 167 151 137 148 150 149 132 144 147 142
355 9 249 231 223 218 217 222 220 220 218 214 213 212 208 205 201 194 192 192 199 210 205 184 176 184 172 166 178 186 178 172 186 173 119 144 153 154 155 149 146 154 151
330 229 205 233 237 230 220 221 223 220 221 219 215 209 210 212 205 202 201 201 206 220 209 199 191 186 182 184 187 194 188 179 173 139 152 174 167 171 174 166 176 161 158
331 243 210 223 240 244 234 228 227 219 219 220 217 214 215 215 209 207 209 210 218 221 215 225 214 209 218 205 196 200 193 177 155 144 165 202 179 171 172 170 179 180 167
343 283 232 236 230 243 239 239 230 227 221 220 221 220 222 216 211 212 214 217 223 228 219 209 218 215 215 212 211 230 194 186 141 171 176 215 173 168 180 175 186 177 177
334 313 266 245 240 234 236 239 237 231 226 224 223 223 225 221 217 216 217 220 222 210 197 209 218 219 223 211 214 221 197 195 158 186 180 201 183 178 191 190 193 188 184
315 314 284 263 247 242 234 236 239 236 232 229 227 224 224 220 219 220 220 219 212 204 210 223 222 223 219 213 210 217 202 187 187 197 191 186 223 194 203 204 189 195 190
302 302 294 280 266 250 240 235 236 238 236 232 231 230 230 227 220 217 220 213 208 207 218 226 224 217 224 211 210 216 212 199 179 210 201 202 227 194 210 211 192 193 199
309 303 294 282 277 270 254 238 234 237 236 237 235 233 231 227 224 221 214 211 209 213 222 219 222 220 223 208 209 212 204 203 185 208 209 217 223 212 193 216 201 201 209
310 310 298 285 279 277 272 263 245 239 240 236 235 233 230 229 223 216 215 215 215 220 221 218 223 226 215 210 210 215 207 202 200 211 210 231 217 198 184 210 217 212 213
305 304 302 294 281 274 274 269 265 253 239 239 236 234 231 229 221 214 215 216 216 218 219 221 227 222 213 213 217 217 208 202 210 211 215 228 212 198 193 201 220 221 220
302 300 300 300 291 278 270 270 266 259 246 241 239 234 233 228 224 216 214 219 215 216 216 218 219 221 217 205 213 230 210 209 210 215 221 225 214 211 206 200 209 218 222
301 298 296 295 290 281 267 261 261 260 253 246 240 236 232 232 230 221 214 218 216 212 210 213 219 223 217 212 216 218 213 210 210 216 217 236 222 219 216 214 214 221 226
303 299 295 290 286 278 269 260 258 256 255 256 245 244 241 228 234 229 222 218 219 211 210 208 212 220 221 216 217 218 214 218 210 218 222 238 228 221 223 224 222 216 225
304 300 293 289 284 277 271 263 259 256 257 253 254 244 243 243 229 232 230 219 214 214 213 208 205 211 215 217 218 221 221 224 223 223 225 226 237 227 228 230 231 227 225
308 301 294 286 279 271 269 266 260 262 258 257 252 251 243 245 247 230 231 228 214 215 208 203 206 206 210 214 219 223 225 227 228 229 233 235 232 239 234 236 236 236 235
304 301 294 288 280 273 266 261 258 253 256 253 257 252 252 258 248 253 234 220 217 211 212 207 210 209 210 213 214 219 226 228 232 232 235 237 239 240 244 245 242 243 241
300 297 294 289 282 275 267 256 249 256 255 253 251 251 253 255 263 256 256 227 222 216 211 210 209 213 216 211 210 213 224 230 234 234 239 241 243 244 244 244 248 243 243
302 296 294 290 285 276 266 259 253 243 250 247 250 246 247 255 250 266 246 246 244 216 209 218 210 211 208 212 208 207 224 231 235 240 241 243 245 244 246 246 245 250 248
304 300 297 291 286 276 266 255 243 243 247 249 251 249 244 250 253 252 251 236 229 214 216 217 211 206 210 203 197 208 216 232 237 243 245 248 249 249 249 248 249 251 251
308 302 298 293 284 273 266 253 245 237 241 241 247 249 244 238 245 248 257 258 237 233 216 224 215 208 204 209 216 211 201 216 240 249 248 254 255 251 250 251 252 252 254
310 305 302 298 296 277 263 250 237 235 237 242 252 243 240 242 237 240 251 247 231 216 217 229 211 213 222 220 219 224 224 234 209 228 248 251 248 247 249 250 252 253 254
313 312 311 302 295 280 256 242 234 233 235 240 241 249 241 244 234 234 233 250 250 199 212 212 212 207 228 244 233 232 230 230 236 236 247 239 244 242 241 244 248 254 255
319 318 318 311 302 288 258 239 223 230 236 242 247 245 254 246 244 231 227 227 248 239 224 214 226 231 200 242 264 249 242 234 238 239 239 246 260 259 248 246 247 250 254